Fort Covington, New York, United States (12937)
Lat: 44.99N, Lon: 74.5W
Wx Zone: NYZ027
Local Info
Past Weather Observations for Sunday, October 26, 2014

NOTE: This archive is for the closest National Weather Service station to Fort Covington. Information may differ from the station used for current weather conditions.

Click here for Long-term Archive

Time Weather Temperature Dewpoint Humidity Pressure Winds Precip Visibility
23:53
Overcast
45°F / 7°C 37°F / 3°C 76% 29.8 in
(1009 mb)
W 11.5 mph
(W 19 kph)
- 10SM
22:53
Overcast
46°F / 8°C 37°F / 3°C 71% 29.77 in
(1008 mb)
W 11.5 mph
(W 19 kph)
- 10SM
21:53
Overcast
46°F / 8°C 37°F / 3°C 71% 29.77 in
(1008 mb)
W 13.8 mph
(W 22 kph)
0.00 in
(0.00 mm)
10SM
20:53
Overcast
46°F / 8°C 37°F / 3°C 71% 29.77 in
(1008 mb)
W 15 mph
(W 24 kph)
0.00 in
(0.00 mm)
10SM
20:15
Overcast
46°F / 8°C 39°F / 4°C 76% 29.77 in
(1008 mb)
W 15 mph
(W 24 kph)
0.00 in
(0.00 mm)
10SM
20:00
Overcast
46°F / 8°C 37°F / 3°C 71% 29.74 in
(1007 mb)
W 10.4 mph
(W 17 kph)
- 10SM
19:53
Overcast
46°F / 8°C 37°F / 3°C 71% 29.74 in
(1007 mb)
W 13.8 mph
(W 22 kph)
0.00 in
(0.00 mm)
10SM
19:28
Overcast
46°F / 8°C 39°F / 4°C 76% 29.74 in
(1007 mb)
W 12.7 mph
(W 20 kph)
0.00 in
(0.00 mm)
10SM
18:53
Overcast
Light Rain
46°F / 8°C 39°F / 4°C 76% 29.71 in
(1006 mb)
SSW 11.5 mph
(SSW 19 kph)
0.00 in
(0.00 mm)
10SM
17:53
Overcast
46°F / 8°C 37°F / 3°C 71% 29.71 in
(1006 mb)
SSW 13.8 mph
(SSW 22 kph)
- 10SM
16:53
Overcast
48°F / 9°C 37°F / 3°C 66% 29.68 in
(1005 mb)
W 16.1 mph
(W 26 kph)
- 10SM
15:53
Overcast
48°F / 9°C 37°F / 3°C 66% 29.65 in
(1004 mb)
W 15 mph
(W 24 kph)
- 10SM
14:53
Overcast
48°F / 9°C 37°F / 3°C 66% 29.62 in
(1003 mb)
SSW 13.8 mph
(SSW 22 kph)
- 10SM
13:53
Overcast
48°F / 9°C 37°F / 3°C 66% 29.59 in
(1002 mb)
WNW 13.8 mph
(WNW 22 kph)
- 10SM
12:53
Overcast
50°F / 10°C 36°F / 2°C 58% 29.59 in
(1002 mb)
W 16.1 mph
(W 26 kph)
- 10SM
11:53
Mostly Cloudy
50°F / 10°C 36°F / 2°C 58% 29.56 in
(1001 mb)
W 15 mph
(W 24 kph)
- 10SM
10:53
Overcast
48°F / 9°C 37°F / 3°C 66% 29.56 in
(1001 mb)
WNW 15 mph
(WNW 24 kph)
- 10SM
09:53
Overcast
46°F / 8°C 39°F / 4°C 76% 29.56 in
(1001 mb)
SSW 16.1 mph
(SSW 26 kph)
- 10SM
08:53
Overcast
46°F / 8°C 41°F / 5°C 82% 29.56 in
(1001 mb)
W 15 mph
(W 24 kph)
- 10SM
07:53
Overcast
46°F / 8°C 41°F / 5°C 82% 29.53 in
(1000 mb)
SSW 10.4 mph
(SSW 17 kph)
0.00 in
(0.00 mm)
10SM
06:53
Overcast
45°F / 7°C 43°F / 6°C 93% 29.53 in
(1000 mb)
SW 5.8 mph
(SW 9 kph)
0.01 in
(0.25 mm)
10SM
06:41
Overcast
45°F / 7°C 43°F / 6°C 93% 29.5 in
(999 mb)
SW 6.9 mph
(SW 11 kph)
0.01 in
(0.25 mm)
10SM
06:14
Overcast
Light Rain
46°F / 8°C 43°F / 6°C 87% 29.5 in
(999 mb)
SSW 10.4 mph
(SSW 17 kph)
0.00 in
(0.00 mm)
9SM
05:53
Overcast
Light Rain
46°F / 8°C 43°F / 6°C 87% 29.5 in
(999 mb)
SSW 8.1 mph
(SSW 13 kph)
0.01 in
(0.25 mm)
10SM
04:53
Overcast
Light Rain
46°F / 8°C 43°F / 6°C 87% 29.5 in
(999 mb)
SSW 6.9 mph
(SSW 11 kph)
0.00 in
(0.00 mm)
10SM
03:53
Overcast
Light Rain
46°F / 8°C 43°F / 6°C 87% 29.47 in
(998 mb)
W 9.2 mph
(W 15 kph)
0.00 in
(0.00 mm)
10SM
02:53
Overcast
Light Rain
48°F / 9°C 43°F / 6°C 82% 29.47 in
(998 mb)
SSW 13.8 mph
(SSW 22 kph)
0.01 in
(0.25 mm)
10SM
01:53
Overcast
46°F / 8°C 45°F / 7°C 93% 29.44 in
(997 mb)
SSW 5.8 mph
(SSW 9 kph)
- 10SM
00:53
Overcast
45°F / 7°C 43°F / 6°C 93% 29.44 in
(997 mb)
SW 6.9 mph
(SW 11 kph)
0.01 in
(0.25 mm)
10SM
Time Weather Temperature Dewpoint Humidity Pressure Winds Precip Visibility


Weather for websites

WeatherForYou.com, LLC is not responsible for any damages or problems caused by this service. Current weather conditions are obtained from the closest station including government and personal stations which may have varying degrees of accuracy. Weather forecasts are derived from the NOAA NDFD. Like all things, this site belongs to Jesus Christ... He just trusts me to maintain it. If you have any questions or comments email webmaster@weatherforyou.com

Copyright © 2014, WeatherForYou.com LLC. All rights reserved.